Wind_Speed
3 3 4 5 5 6 6 7 7 7 6 7 8 8 9 10 11 12 14 16 17 18 20 21 23 26 28 30 32 34 36 37 38 38 38 38 38 37 37 38 39 40 40 39 39 39 39 40 39 39 41 45 48 51 52 51 49 48 46 42 37 32 27 25 28 32 34 31 27 27 28 27 25 22 21 21 19 17 16 15 14 14 13 11 10
3 4 5 6 6 7 7 8 8 7 7 8 9 9 10 11 12 13 15 16 18 19 20 22 24 26 28 30 32 34 35 37 39 39 38 39 39 37 37 38 40 40 40 39 38 38 39 39 38 39 42 46 49 52 52 51 50 48 45 40 35 30 27 29 32 34 34 29 24 25 28 28 25 23 20 19 18 17 16 16 14 12 11 9 8
4 5 6 7 7 8 8 8 8 8 9 9 10 10 11 12 12 14 15 17 18 19 21 22 24 26 28 30 31 33 35 37 39 39 39 39 39 37 37 39 40 40 39 38 38 38 38 38 38 39 43 47 49 51 51 50 50 47 43 38 33 30 31 33 34 35 33 26 22 24 26 25 23 22 21 20 19 19 19 18 16 14 11 10 7
5 6 7 8 8 8 9 9 9 9 9 10 11 12 12 12 13 15 16 18 19 20 21 22 24 26 27 29 31 33 35 37 39 39 39 40 39 37 38 39 40 40 39 38 37 38 38 38 37 40 44 47 49 51 51 50 49 47 43 38 34 33 33 35 35 34 30 25 22 22 23 22 20 19 21 20 18 20 19 18 18 16 14 13 10
6 7 7 8 8 9 9 9 9 9 10 11 12 13 13 13 14 15 17 18 19 20 21 22 24 25 27 29 32 34 36 38 40 39 39 40 38 37 38 40 40 40 38 37 37 38 38 37 37 40 43 46 49 51 52 51 49 46 44 40 37 35 35 35 35 32 28 23 19 20 21 20 20 20 21 20 18 19 18 18 21 21 18 17 16
6 7 7 8 8 8 9 9 9 10 11 12 13 14 14 14 14 16 18 19 20 21 22 23 24 25 27 29 32 35 36 38 39 39 39 40 38 37 38 40 41 40 38 37 37 37 37 36 37 39 43 46 49 52 52 51 49 46 43 40 37 35 34 36 35 31 27 23 20 22 22 20 21 22 21 18 17 19 18 18 20 21 20 19 20
6 7 7 8 8 8 9 10 10 11 12 12 13 14 15 15 15 16 18 19 20 21 22 23 24 25 27 29 32 34 36 38 39 38 39 40 38 37 39 40 41 39 38 37 37 37 37 36 36 39 42 45 48 50 51 50 49 47 43 39 35 34 35 37 36 32 29 26 24 25 23 20 21 23 21 18 17 18 17 20 20 19 21 21 18
8 8 9 9 9 9 9 10 11 12 12 13 14 14 15 16 16 17 18 19 20 21 22 23 24 25 27 29 32 34 36 38 38 38 39 39 37 37 38 40 40 39 37 37 37 37 37 35 36 38 41 43 46 48 49 49 48 47 43 40 37 36 37 37 37 34 31 29 27 25 23 21 21 22 21 20 19 18 18 21 19 18 22 22 19
9 10 10 11 11 10 11 11 12 12 13 14 14 15 15 16 17 17 18 19 20 21 22 23 24 25 27 29 32 34 36 38 38 38 39 39 37 37 38 40 40 39 37 36 37 37 36 35 35 37 40 42 44 47 48 47 47 46 44 43 41 38 37 37 36 34 32 31 29 27 25 24 23 22 22 21 21 21 22 21 18 17 20 20 19
10 10 11 11 11 11 11 11 12 13 14 15 15 16 16 16 17 17 18 19 20 21 22 23 24 25 27 29 32 34 36 38 38 38 39 38 36 37 38 40 40 38 37 36 36 36 36 35 34 36 39 41 43 46 48 47 46 45 44 44 42 40 37 37 36 32 30 30 30 30 28 26 24 22 22 22 23 24 23 21 19 18 17 18 18
10 10 11 11 10 10 10 11 12 13 14 15 16 17 17 17 18 18 18 19 20 21 22 23 24 25 27 29 32 34 36 37 37 38 38 37 36 36 38 39 39 38 37 36 36 36 36 35 34 35 38 40 42 44 47 48 46 45 43 41 40 38 36 36 36 32 28 28 29 30 29 26 24 22 21 22 23 24 23 22 21 19 18 18 18
10 10 10 10 10 11 11 11 11 12 13 15 16 17 17 17 18 18 18 19 20 21 22 23 24 25 27 29 32 34 36 37 37 37 37 36 36 36 37 39 39 38 37 36 36 36 36 35 34 34 36 39 41 43 45 48 48 46 44 42 39 37 35 35 35 33 29 28 28 28 27 26 24 23 23 23 23 23 23 23 21 20 19 18 17
9 9 10 10 10 11 11 11 12 13 14 15 16 17 17 18 18 18 18 18 20 20 21 23 24 25 27 29 32 34 35 36 36 37 36 35 35 36 37 38 39 38 37 36 36 35 35 35 33 33 35 38 40 42 44 46 48 47 46 45 42 40 39 37 35 34 32 29 28 28 26 25 24 24 24 24 23 23 23 22 21 19 19 19 18
10 10 11 12 12 12 12 12 13 14 15 15 16 17 18 18 18 18 18 18 19 20 21 22 24 25 27 29 32 33 35 36 36 36 35 34 35 35 36 38 38 38 37 35 35 35 35 34 33 33 34 36 39 41 43 44 46 48 48 47 46 44 43 42 41 39 37 35 32 30 27 24 24 25 25 24 24 23 22 21 19 18 18 17 15
12 12 13 14 14 14 13 13 14 14 15 16 16 17 18 18 18 18 17 18 19 19 20 22 23 25 27 29 31 33 34 35 35 35 34 34 34 35 36 37 37 37 36 35 34 34 34 34 34 33 33 35 37 40 42 43 45 47 48 48 48 47 46 46 45 44 42 41 38 35 32 26 23 24 25 24 23 22 20 18 17 16 15 15 15
13 14 14 15 15 15 15 15 15 15 15 15 16 17 17 18 18 18 17 17 18 19 20 21 23 25 27 29 31 32 34 34 34 34 33 33 34 34 35 36 37 37 36 34 34 34 34 34 34 33 32 33 36 38 40 42 43 45 46 48 48 48 47 46 45 44 44 43 41 39 38 33 27 24 24 24 23 20 18 16 16 15 15 18 21
15 14 14 15 15 16 16 15 15 15 15 16 16 16 17 18 18 17 17 16 17 18 19 20 22 24 26 29 31 32 33 34 34 34 32 32 33 34 35 36 36 36 36 35 34 33 33 33 34 33 32 32 34 36 38 40 42 43 44 46 47 47 48 47 44 43 42 43 42 41 40 39 35 30 28 28 25 21 18 17 17 17 18 22 26
15 15 15 15 15 15 15 15 15 15 15 15 16 16 17 17 18 17 16 16 16 17 18 19 21 23 26 28 30 31 33 33 34 33 31 31 33 34 35 35 36 36 36 35 34 33 32 33 33 33 32 31 32 34 36 38 40 41 42 44 45 46 47 47 45 43 42 41 42 42 41 41 40 38 35 32 30 26 23 21 21 22 24 26 27
15 15 15 15 15 14 14 14 14 14 14 14 15 16 17 17 17 17 16 15 16 16 17 18 20 23 25 28 29 31 32 32 33 32 30 31 33 34 34 35 35 35 36 35 34 32 32 32 32 33 32 31 31 32 34 36 38 40 41 42 42 44 44 45 45 45 44 42 41 42 42 42 42 41 39 36 34 30 27 26 26 27 29 29 28
16 16 16 15 15 14 14 14 14 14 14 14 15 15 17 17 17 16 15 15 15 15 16 18 20 22 24 27 29 30 31 32 33 32 29 30 32 33 34 34 34 35 35 35 34 32 31 31 31 32 32 31 30 30 32 34 36 37 39 40 40 41 42 43 44 45 45 43 41 41 41 42 42 41 39 38 36 32 29 28 29 29 29 30 28
18 17 17 16 15 14 14 15 14 14 14 14 15 15 16 17 17 16 15 14 14 14 15 17 19 21 24 26 28 29 30 31 32 31 28 29 31 32 33 34 34 34 35 35 34 32 31 31 31 31 31 31 31 30 30 31 33 35 37 38 39 40 40 40 41 42 44 44 43 41 40 39 39 38 37 36 35 33 30 28 27 26 26 26 26
20 20 19 18 16 15 15 15 15 14 14 14 15 15 16 17 17 17 15 14 14 14 14 16 18 21 23 25 27 28 29 30 31 29 27 28 30 32 33 33 33 34 34 34 34 33 31 30 30 30 30 31 30 30 29 30 31 33 35 36 38 39 39 39 39 40 40 42 43 42 40 37 35 35 34 34 33 32 31 29 28 27 26 25 25
21 21 21 19 18 17 15 16 16 15 14 14 15 15 16 17 18 17 16 14 13 13 13 15 18 20 22 24 26 27 28 29 30 28 26 27 30 31 32 32 33 34 34 34 34 33 31 30 30 29 29 29 29 29 29 29 29 31 32 34 36 37 38 38 38 38 38 39 39 40 40 38 35 34 32 31 31 30 29 29 29 29 29 28 26
23 23 21 19 19 19 17 16 16 15 14 14 15 15 15 16 17 17 16 14 13 13 13 15 17 19 22 23 25 26 28 28 29 27 25 26 29 30 31 31 32 34 34 34 34 33 32 30 29 29 29 29 29 28 28 27 27 29 30 31 33 34 36 36 36 37 37 37 37 37 38 38 38 36 33 30 29 28 27 27 26 27 28 27 26
24 24 22 19 19 19 19 18 17 16 15 15 15 15 16 16 15 15 14 13 12 12 13 14 17 19 21 22 24 25 26 27 28 26 24 25 28 29 30 30 31 33 34 34 34 33 32 30 29 29 28 28 28 28 28 27 26 27 27 29 30 32 33 34 35 36 36 36 36 36 36 37 37 37 35 33 30 28 27 26 26 25 25 24 23
25 25 24 21 20 20 20 20 20 18 16 16 16 15 16 16 15 14 13 12 12 12 13 14 16 18 20 21 23 25 25 26 27 25 23 24 26 28 29 29 31 32 34 34 34 33 32 31 29 29 28 28 28 28 28 27 26 25 25 26 27 29 31 32 33 34 34 34 34 34 34 34 35 35 34 34 32 30 28 26 25 25 23 22 21
25 25 24 23 21 21 21 21 21 19 17 16 16 16 16 16 16 15 14 13 12 13 13 14 16 18 19 21 22 24 24 25 26 24 22 23 25 27 27 28 30 31 33 34 34 34 32 31 30 29 28 27 27 28 28 27 27 26 25 24 25 26 28 30 31 32 32 33 33 32 32 32 32 32 32 32 32 31 30 28 26 24 22 21 20
25 24 23 22 21 21 21 21 21 19 16 16 16 16 16 16 16 15 14 14 13 13 13 14 15 17 19 20 22 23 23 24 25 23 21 22 24 26 26 27 29 30 32 34 35 34 33 32 30 29 28 27 27 27 28 28 27 26 25 24 23 24 25 27 28 30 30 31 31 31 31 30 30 29 29 30 30 30 29 29 28 26 23 21 19
25 24 23 22 22 22 22 21 21 19 16 15 16 16 16 16 15 15 15 14 14 13 12 13 14 16 18 20 22 22 22 23 24 22 20 21 23 25 26 26 28 29 31 33 34 35 34 33 31 29 28 27 26 26 27 28 28 27 26 24 23 22 22 24 25 27 28 28 29 30 29 29 28 28 28 28 28 28 27 27 27 26 25 23 21
23 23 23 23 23 23 23 21 20 19 16 15 15 16 16 15 15 15 15 14 14 13 12 13 14 16 18 20 21 21 21 23 24 22 19 20 22 24 25 26 27 28 30 32 34 35 34 33 31 29 28 27 26 26 27 28 28 27 26 25 23 22 21 21 22 24 25 26 27 27 27 27 27 27 27 27 26 26 26 25 25 25 24 24 23
21 22 23 23 24 24 23 21 20 19 17 16 15 15 15 15 15 14 14 14 13 12 12 12 14 16 18 20 21 21 21 22 23 21 19 19 22 23 24 25 26 28 29 31 33 34 34 33 31 29 28 27 26 25 27 29 29 28 26 25 23 22 21 20 20 21 22 24 24 25 26 26 26 26 25 25 25 25 24 24 23 23 23 23 22
20 21 22 23 23 23 22 21 19 17 15 15 15 15 15 15 14 14 14 13 13 12 12 13 14 16 18 20 20 20 20 21 22 21 19 19 21 22 24 25 26 27 28 30 32 33 34 34 32 30 28 28 26 26 28 30 30 29 27 25 24 23 22 20 19 19 20 21 22 23 23 24 25 24 24 24 24 24 24 23 23 22 21 21 21
21 21 22 22 22 22 21 20 18 15 14 15 15 15 15 14 14 13 13 13 12 12 13 13 14 16 18 19 19 19 20 21 22 21 19 18 19 21 23 24 25 26 28 29 30 32 34 34 32 30 28 28 27 26 27 30 31 30 28 26 24 23 23 22 20 19 19 19 20 21 21 22 22 23 24 23 23 22 23 23 22 22 21 20 20
21 21 23 23 22 21 20 19 17 15 14 15 15 15 15 14 14 13 13 13 13 13 14 14 15 16 18 19 19 19 20 22 22 21 19 18 18 20 21 23 24 26 27 28 29 31 32 33 32 30 27 27 26 26 27 29 30 30 29 27 25 24 24 23 22 21 19 18 18 19 19 20 20 21 23 23 23 22 22 22 22 22 21 21 20
22 22 22 23 22 20 19 18 16 15 14 15 16 15 14 14 14 13 12 12 13 14 14 14 15 16 17 18 18 19 21 22 22 21 20 18 18 19 21 22 24 25 26 27 28 29 31 32 32 30 27 26 26 25 26 28 29 29 29 28 27 25 24 24 23 22 21 20 19 19 19 19 19 19 20 22 23 23 23 22 21 21 21 21 21
23 23 21 21 21 19 18 17 16 15 14 15 15 15 14 13 13 13 12 13 13 14 15 15 15 16 17 18 18 19 20 21 21 21 20 19 18 19 20 22 23 24 25 26 27 28 30 31 32 30 27 25 25 25 25 26 27 28 29 29 28 27 26 25 24 24 23 22 21 20 19 19 19 19 19 20 21 22 22 22 21 21 21 21 21
23 23 21 19 18 18 18 17 16 15 15 15 15 15 14 13 13 13 13 13 14 15 15 15 16 16 17 17 18 19 20 21 21 21 21 20 19 20 21 22 23 24 25 26 27 28 29 30 31 30 27 25 24 25 25 25 26 27 27 28 28 28 28 27 26 26 25 24 23 22 20 19 19 19 19 19 19 20 20 21 21 21 21 20 21
21 22 21 18 16 17 18 17 17 16 15 15 15 14 14 13 13 13 13 14 14 15 15 15 16 17 17 17 17 18 20 20 21 22 22 21 21 20 21 22 23 24 25 25 27 27 28 29 30 30 28 26 24 24 25 26 27 27 28 28 28 28 28 28 28 27 26 25 24 23 22 21 20 19 19 19 19 19 19 20 20 21 21 20 20
19 20 20 19 17 16 17 17 17 17 16 15 15 14 13 13 14 14 14 14 15 15 15 15 16 17 17 17 17 18 19 20 21 22 22 22 22 21 21 21 22 24 25 25 27 27 28 29 30 30 29 27 25 25 25 26 28 29 29 30 30 30 29 29 28 28 27 26 25 24 23 22 21 20 20 20 19 19 19 19 20 20 20 20 21
19 19 20 20 18 17 16 16 16 17 17 16 15 14 13 14 14 14 14 14 15 15 15 15 16 17 17 17 18 18 19 20 20 21 22 22 22 22 22 22 23 24 24 25 27 27 28 29 29 30 28 27 25 25 26 27 28 29 30 31 32 32 32 31 30 28 28 28 27 26 24 23 22 21 20 20 20 19 19 19 19 19 19 19 20
20 19 20 20 20 18 16 15 16 16 17 17 16 15 14 14 14 14 14 14 14 15 15 16 17 17 17 17 18 18 19 19 20 21 22 22 23 23 22 23 23 24 25 26 26 27 28 28 29 29 28 26 25 25 25 26 28 29 31 32 33 33 34 33 32 29 27 27 28 27 26 24 23 23 22 21 20 19 19 19 19 18 18 18 19
20 20 20 20 21 20 17 15 15 16 17 17 16 15 14 13 14 14 14 14 14 14 15 16 17 17 17 18 18 18 19 19 19 21 22 22 23 23 23 23 23 24 25 26 26 27 27 28 28 28 27 26 24 24 25 26 28 30 32 32 33 33 34 34 32 29 27 27 28 28 27 25 24 23 23 22 21 20 19 18 18 18 18 18 18
20 20 21 21 21 21 19 16 15 15 16 17 16 15 14 13 13 13 14 14 14 14 15 16 17 17 18 18 18 19 19 19 19 20 21 22 23 23 23 23 23 24 25 26 27 28 28 28 28 28 28 26 25 24 25 26 28 31 34 34 35 34 34 33 31 29 29 30 30 29 26 24 23 23 22 22 21 20 19 18 17 17 17 17 17
21 22 22 22 22 22 21 19 16 16 16 16 16 15 14 13 13 14 14 14 14 15 15 16 17 18 18 18 19 19 19 19 19 19 21 22 23 23 23 23 24 25 26 27 28 28 29 28 28 28 28 27 27 26 26 27 29 32 35 37 38 36 34 32 31 31 31 31 30 27 24 22 21 21 21 21 20 19 19 18 17 17 17 17 17
25 24 24 23 22 22 22 21 19 18 17 17 16 15 14 13 13 14 14 15 15 15 15 16 17 18 18 19 19 19 19 19 19 19 20 21 22 22 23 24 25 26 27 27 28 29 29 29 29 28 28 28 28 28 28 28 31 34 37 39 39 36 33 31 31 30 29 28 26 23 21 20 20 20 21 21 21 19 18 18 17 17 17 17 17
26 25 24 23 22 22 22 21 20 20 19 18 17 16 14 13 14 15 15 16 16 16 16 17 17 18 19 19 19 19 19 19 19 18 19 20 21 22 23 24 25 26 27 28 29 29 29 29 30 29 29 29 29 29 29 30 33 36 38 40 38 34 31 29 29 27 26 24 22 20 19 18 19 20 21 21 21 20 19 19 18 18 17 17 16
27 26 25 24 22 21 21 21 20 20 20 19 18 16 15 14 14 15 16 17 17 17 17 17 18 18 19 19 20 19 19 20 19 19 18 19 21 22 23 24 25 26 28 29 30 29 29 30 30 31 31 30 30 30 31 32 34 37 39 39 35 32 29 28 27 25 24 23 22 21 21 21 22 23 23 23 22 21 20 20 19 19 18 17 16
29 28 27 25 24 23 22 21 21 21 21 21 20 18 16 15 15 15 16 17 18 17 17 17 18 18 19 20 20 19 19 20 20 19 19 20 21 22 23 25 26 27 28 30 30 30 30 30 31 32 32 31 31 32 32 34 36 38 39 37 33 30 28 28 27 26 26 26 25 25 25 24 25 25 24 24 23 21 20 19 19 19 18 17 16
30 30 29 27 26 25 24 23 22 22 22 22 21 20 18 16 15 16 17 18 18 18 18 18 18 18 19 20 20 20 19 20 20 20 20 20 22 23 24 25 26 27 29 30 30 30 30 31 33 33 33 32 32 33 34 36 38 39 38 35 32 29 29 29 28 28 28 27 27 26 26 25 25 25 24 24 23 22 20 19 18 18 18 17 16
29 30 30 29 27 26 26 26 25 24 23 23 22 22 20 18 17 16 16 17 18 19 19 19 19 18 19 19 20 20 20 20 20 20 20 21 22 23 24 25 26 27 29 31 30 30 30 32 34 34 33 33 34 35 36 38 39 39 37 34 31 30 30 30 30 29 29 29 28 28 28 28 27 26 26 25 24 23 22 21 19 18 17 17 16
28 29 29 29 28 27 27 27 27 26 24 23 23 23 22 20 18 17 17 17 18 19 19 19 19 19 18 19 20 20 20 20 20 20 19 20 22 24 25 26 26 28 30 31 30 30 30 32 34 35 35 35 36 37 38 39 40 39 36 33 31 31 31 31 31 30 30 30 30 30 30 30 29 29 28 27 26 25 24 22 20 19 17 16 16
Wind_Direction
47 33 25 18 14 7 355 346 346 350 348 343 342 344 348 352 352 348 344 345 348 353 358 358 357 357 356 355 355 354 354 353 352 352 353 354 353 351 350 349 348 349 351 353 353 353 352 353 352 350 348 349 350 351 352 352 351 348 346 346 346 346 349 350 348 347 347 345 343 346 355 3 3 359 352 350 353 353 349 342 328 319 311 300 286
15 10 6 8 5 358 351 346 345 347 345 341 337 337 342 345 345 343 342 342 345 351 357 357 356 355 355 354 352 352 352 351 351 353 354 354 353 352 351 349 350 352 353 355 355 354 355 354 353 351 352 353 354 355 356 354 352 350 349 348 349 352 356 355 351 347 346 346 349 356 4 8 7 7 3 359 6 10 7 4 354 344 336 321 306
3 1 1 4 358 352 348 346 345 345 344 338 331 331 336 339 339 339 340 341 343 350 355 356 355 354 353 351 350 350 351 351 352 354 355 354 353 352 351 351 352 353 355 356 356 356 356 356 355 354 355 356 357 358 357 356 356 355 354 355 358 1 1 357 352 348 346 348 354 1 7 11 12 12 5 358 9 18 16 12 6 3 4 358 343
1 1 1 360 354 349 347 345 344 344 343 335 327 327 331 334 336 338 338 340 343 349 354 355 354 352 351 349 348 349 351 352 353 354 355 354 353 352 352 352 353 355 357 357 358 358 358 358 357 357 359 359 359 0 359 359 2 2 3 7 9 7 3 358 354 350 348 348 353 360 6 13 16 11 2 1 16 27 24 20 17 23 32 25 24
1 2 360 356 352 349 346 345 343 344 343 333 325 325 328 330 335 336 337 340 343 347 351 353 352 351 349 348 348 349 351 352 353 355 355 354 353 353 353 353 354 356 358 359 359 359 360 359 359 0 2 1 2 3 2 3 7 10 12 14 12 9 5 2 359 355 353 352 354 357 0 6 9 5 1 8 29 38 31 26 27 36 45 40 44
358 358 357 352 351 349 345 343 343 346 343 334 326 325 327 329 334 335 335 339 343 346 349 351 351 349 348 349 349 349 351 353 354 354 355 355 354 353 354 354 356 358 359 -0 0 1 1 1 1 3 4 4 4 5 5 6 11 15 16 16 13 11 9 7 7 6 6 6 1 359 358 360 5 5 0 5 31 44 37 32 35 41 47 47 50
352 349 347 344 342 342 342 342 344 345 341 333 327 326 327 329 334 334 335 338 342 345 347 349 349 348 348 348 348 349 351 353 354 355 356 356 355 354 355 356 357 359 0 1 1 2 2 2 2 5 7 7 7 8 7 8 12 16 17 16 13 12 13 13 15 15 16 17 11 6 3 5 10 10 5 4 23 42 39 35 38 42 45 51 57
345 342 339 335 332 332 336 339 342 342 337 331 328 328 328 331 333 334 334 337 341 344 345 347 347 347 347 347 347 349 352 354 354 355 356 357 355 355 356 357 358 -0 1 2 2 2 3 3 4 7 9 8 9 10 11 12 13 15 16 15 12 11 13 16 20 20 20 20 18 14 11 17 22 18 16 16 23 34 32 34 45 47 45 52 61
340 339 336 331 328 327 330 335 335 334 330 326 326 327 329 332 333 332 333 337 340 343 344 345 346 346 347 347 347 349 352 354 354 355 357 357 356 356 357 358 359 1 2 3 3 3 3 4 5 8 10 10 10 12 15 16 16 16 16 15 13 12 11 14 20 24 24 24 24 22 20 26 33 32 31 32 34 36 32 35 49 53 49 53 63
338 339 336 331 327 325 327 330 330 327 324 322 322 324 327 331 331 331 333 337 340 343 343 344 345 345 346 346 346 350 353 354 354 355 357 357 356 357 358 359 359 1 3 3 4 4 4 4 5 8 11 11 11 13 16 19 20 20 20 18 15 13 10 12 18 23 26 28 29 30 30 33 38 40 39 40 43 44 40 42 49 51 55 60 67
338 337 334 329 325 323 324 327 328 326 323 320 319 320 324 328 328 328 333 336 339 342 343 344 344 344 346 346 346 350 353 354 354 355 357 358 357 358 359 359 360 2 4 4 4 4 4 4 5 8 12 13 13 14 17 20 22 24 25 25 22 17 13 13 16 20 22 24 24 27 31 34 37 38 40 44 48 50 52 54 54 54 60 62 62
334 331 325 321 319 319 321 325 327 328 325 322 321 320 323 324 324 325 330 335 338 341 342 343 344 344 345 345 346 351 353 354 353 354 357 358 357 358 359 359 0 2 4 5 4 4 4 4 5 8 12 13 14 15 17 19 22 25 27 29 30 27 22 19 19 21 23 22 21 24 29 33 36 38 43 49 53 57 59 62 65 66 68 68 62
326 320 315 311 311 312 316 321 326 327 326 325 323 323 323 323 321 322 327 332 335 338 341 343 343 344 345 345 346 351 353 353 353 354 357 358 357 358 360 360 1 3 5 5 4 4 4 4 5 7 11 14 15 16 18 19 21 24 27 29 32 33 33 30 28 27 29 30 30 32 34 36 38 41 46 53 58 62 63 65 70 71 74 77 74
316 313 310 308 308 309 312 317 322 324 325 326 326 325 325 323 321 321 325 329 332 335 339 342 343 344 345 345 346 351 353 353 353 354 357 358 357 359 0 0 1 4 5 5 4 4 4 4 5 7 11 13 15 16 18 20 21 23 26 28 30 33 36 36 34 33 32 33 34 34 36 37 40 44 47 52 57 61 63 66 69 71 76 70 63
312 310 309 309 310 311 313 316 319 321 324 326 327 326 325 322 321 323 325 328 329 332 336 340 342 343 344 345 347 350 353 352 352 354 356 357 357 359 0 1 2 4 6 5 4 4 4 4 5 7 10 13 15 16 18 20 21 23 25 28 29 31 34 36 36 35 33 34 33 31 33 36 39 43 46 49 53 57 60 64 66 68 63 41 40
310 309 308 309 311 314 316 317 317 318 320 323 326 326 323 321 322 324 326 327 327 329 334 338 341 343 344 344 346 350 352 352 352 354 356 356 357 358 0 1 2 4 6 6 5 4 4 3 5 7 10 13 14 15 17 19 21 23 25 27 29 31 32 34 36 36 35 34 33 31 33 40 45 45 44 46 51 56 54 51 52 47 35 38 60
307 306 307 310 313 315 317 317 316 315 316 319 322 324 323 323 324 326 328 328 326 326 332 337 339 342 343 344 346 350 352 351 351 354 356 356 356 358 0 1 2 4 6 6 5 4 4 3 4 7 9 12 14 15 17 19 21 22 24 26 28 30 33 33 35 37 37 36 35 33 34 41 49 53 51 51 54 57 53 46 43 39 40 56 72
309 308 309 310 311 313 315 316 314 313 314 317 320 322 324 327 328 329 329 327 324 326 331 335 338 341 342 343 346 349 351 350 350 353 355 355 356 358 0 1 2 4 6 6 5 5 4 3 4 6 8 10 14 15 16 18 20 22 24 25 27 29 32 33 34 36 38 39 38 37 36 38 45 51 54 55 56 57 53 49 47 46 49 61 71
315 314 313 310 307 307 312 314 313 314 315 317 320 324 328 332 333 331 329 326 324 327 331 334 337 340 341 343 345 348 350 349 350 353 355 355 356 358 360 1 2 4 6 6 5 5 4 4 4 5 6 9 12 15 16 17 19 21 23 25 26 28 30 32 33 35 36 39 40 40 38 37 39 44 48 51 54 54 51 47 47 50 51 56 64
317 317 317 315 309 306 308 311 313 315 316 318 323 328 332 334 335 333 330 327 326 328 331 334 337 339 340 342 345 347 349 349 349 352 354 354 355 357 359 0 2 4 6 5 5 5 4 5 5 4 5 7 10 14 16 16 18 20 22 23 25 27 29 31 33 34 35 37 39 41 41 40 39 40 43 46 49 50 49 46 46 49 51 51 53
317 318 317 317 314 311 311 311 312 315 317 321 326 332 335 335 335 335 332 330 328 329 333 335 337 339 340 342 344 346 349 349 349 352 354 354 355 356 358 360 2 4 6 5 5 5 4 5 6 5 4 5 8 11 14 16 16 18 21 22 23 24 27 30 32 35 35 36 37 40 42 43 42 42 43 45 47 49 49 49 48 48 48 48 49
315 318 319 319 317 316 317 316 313 313 318 324 328 334 336 335 336 337 335 331 329 331 335 336 338 338 340 342 343 345 347 348 348 351 353 354 355 356 358 359 2 4 5 5 4 5 5 5 6 6 5 5 6 9 12 14 15 16 19 21 21 22 24 27 30 34 36 37 38 39 40 41 42 43 44 45 46 47 48 50 51 52 51 51 54
311 315 320 321 320 319 320 321 318 314 316 324 330 335 337 336 336 336 335 332 330 333 337 339 338 339 340 342 343 344 346 347 348 351 353 354 355 356 357 359 2 4 5 5 4 4 5 5 6 6 6 6 6 8 10 12 13 15 17 19 20 21 22 24 27 30 34 36 38 40 40 41 41 42 43 43 45 47 48 50 53 55 55 55 57
308 312 317 319 320 321 323 325 323 320 320 324 330 336 337 336 335 334 333 332 332 335 341 341 340 339 341 342 342 344 346 346 348 351 353 353 355 356 357 359 3 5 5 4 4 4 5 5 6 6 7 7 7 8 9 11 11 13 15 17 19 19 20 21 23 26 30 33 35 38 39 40 41 41 41 40 40 42 43 46 50 54 57 57 58
306 309 313 315 316 319 323 325 325 326 326 325 330 335 336 334 333 333 332 332 333 338 344 344 341 340 341 341 341 343 345 346 348 351 352 353 354 355 356 359 3 5 6 5 4 4 4 5 5 5 6 7 8 8 9 10 11 11 12 14 17 18 18 19 20 23 26 29 32 34 37 38 40 40 40 38 37 37 37 36 37 42 49 53 56
304 307 311 315 316 317 320 323 325 327 327 326 329 334 334 332 332 334 333 333 336 343 347 346 343 341 340 339 340 342 344 346 348 350 351 352 354 355 356 358 2 5 7 6 5 4 4 5 5 5 5 6 8 8 9 10 10 10 10 11 14 17 17 17 18 20 22 25 28 30 33 36 37 38 38 38 38 37 36 34 31 29 31 36 43
302 305 309 313 317 319 321 324 326 327 326 326 328 332 332 331 332 334 334 335 341 347 349 347 344 341 338 338 339 342 344 347 349 350 350 351 352 354 355 357 0 4 6 6 6 5 4 5 5 4 4 5 7 8 9 9 10 9 9 10 11 14 16 16 16 17 19 21 24 27 30 32 34 36 36 36 37 36 36 36 35 31 26 23 24
302 304 307 311 315 319 323 326 328 328 327 326 328 331 332 331 332 333 334 338 344 347 347 346 342 339 337 337 339 341 344 347 349 349 348 349 351 352 354 356 359 2 4 5 6 6 5 4 4 4 4 4 6 7 8 9 9 8 8 9 9 11 13 14 14 15 17 18 19 22 26 28 29 31 33 34 35 35 34 34 34 33 31 27 21
305 306 309 311 314 318 323 327 327 327 327 326 326 329 331 332 332 333 335 339 342 345 345 344 341 338 336 336 338 341 343 347 349 349 346 347 349 351 353 355 357 359 1 4 5 6 4 4 4 4 4 4 5 6 7 7 7 6 6 8 8 8 11 13 13 13 14 16 17 19 21 23 24 26 29 31 32 32 33 33 32 31 30 29 27
307 309 310 313 314 316 321 326 326 325 325 324 325 327 330 332 332 333 336 338 340 342 343 341 339 337 335 335 338 340 343 347 348 347 344 345 347 350 352 354 356 357 359 1 4 5 4 4 4 4 4 5 4 6 7 7 5 3 4 5 6 6 7 10 10 10 11 12 15 16 17 18 19 20 23 26 28 29 29 30 30 30 28 27 26
308 310 311 312 314 316 318 321 321 323 325 325 324 327 329 331 332 333 336 337 337 338 340 339 337 335 334 335 337 340 343 346 347 345 342 342 346 349 351 353 354 355 356 359 2 4 4 4 4 4 5 5 5 6 7 7 5 3 2 2 3 4 5 6 7 7 8 9 11 13 14 15 15 16 17 19 22 24 24 25 26 26 27 26 25
312 313 313 314 315 316 316 316 316 320 326 327 326 328 329 330 332 334 336 336 335 335 337 336 335 333 334 335 337 339 342 345 346 345 341 340 343 347 349 351 353 353 354 357 360 1 3 5 4 4 5 6 6 7 7 6 6 5 3 2 1 1 2 3 3 3 4 5 6 8 11 12 11 11 12 13 16 18 19 20 20 20 21 22 23
313 315 316 316 317 318 316 315 316 322 327 328 329 330 330 330 331 333 335 336 335 334 334 333 332 332 334 336 337 339 341 343 345 344 340 337 340 344 346 348 350 351 352 355 357 358 1 4 4 4 5 6 6 6 7 7 7 8 7 4 2 1 0 0 0 359 360 1 1 2 5 8 8 7 6 7 9 11 13 15 15 15 16 16 16
311 315 317 320 322 322 319 317 319 325 329 330 331 332 331 329 329 331 334 336 334 332 331 331 330 331 334 336 336 338 341 342 344 345 341 335 336 340 342 345 348 349 350 353 355 357 359 2 4 4 5 6 6 6 7 8 9 11 11 9 6 3 1 0 359 357 355 356 356 356 358 1 3 3 2 2 2 4 6 8 9 9 10 11 10
310 315 318 322 325 325 321 318 319 323 328 330 332 333 331 327 327 329 334 335 332 329 329 328 328 330 333 335 336 338 341 343 344 345 342 336 333 336 339 342 345 346 348 351 353 355 357 0 2 4 4 5 5 6 7 8 9 11 13 13 11 7 4 1 359 357 355 353 352 352 353 355 357 359 358 357 357 358 359 360 1 3 4 5 4
311 314 317 322 326 323 316 313 315 319 326 330 331 332 330 325 325 329 333 333 329 327 327 326 326 329 333 335 336 338 341 343 345 346 344 339 335 335 337 339 342 343 346 350 351 353 356 358 0 2 2 3 4 5 6 6 8 9 11 12 12 10 7 4 1 358 356 354 351 349 349 350 352 353 353 352 352 353 353 352 353 355 357 359 359
310 312 314 320 324 318 310 309 311 315 321 326 328 331 330 325 324 328 331 330 328 326 325 324 325 328 332 334 335 338 341 345 347 348 347 344 340 337 337 338 339 342 345 349 350 352 355 357 358 360 0 0 1 2 4 5 5 6 7 8 8 7 6 4 2 360 357 355 352 349 348 347 348 348 348 347 346 346 345 346 347 348 350 352 354
311 313 314 317 320 315 309 308 311 313 317 322 326 329 329 325 324 326 329 329 326 324 323 322 323 327 332 333 334 337 341 346 348 348 348 348 345 342 339 338 339 342 345 347 349 351 353 355 356 358 359 358 358 359 360 1 2 3 3 3 3 2 0 359 358 358 357 355 352 350 348 346 345 344 344 343 342 340 339 340 341 343 344 345 346
311 315 315 315 314 311 307 307 311 312 314 317 322 326 326 323 323 325 327 327 324 321 321 321 321 326 330 331 332 335 340 346 348 348 349 350 348 345 342 341 341 343 345 347 348 350 352 353 355 357 358 357 356 356 356 357 358 358 358 357 357 356 355 353 351 351 351 352 351 349 347 345 343 341 340 339 338 337 336 336 336 336 339 340 340
309 313 314 312 310 307 304 305 308 311 312 314 317 321 323 322 322 324 325 324 321 318 318 319 320 324 329 329 329 332 338 344 347 348 349 349 348 346 345 344 344 345 345 346 347 349 350 352 354 356 357 357 356 355 354 354 355 355 354 352 351 350 350 349 347 345 346 347 348 346 344 342 341 339 337 335 333 333 334 333 332 331 332 335 337
303 308 311 309 307 304 302 301 303 305 307 309 311 316 319 319 320 322 322 320 317 315 316 316 318 323 326 327 327 329 335 342 346 346 347 348 348 347 346 346 346 345 345 346 347 348 349 351 353 356 357 356 355 355 354 354 354 354 353 351 349 347 345 345 344 343 343 344 345 343 340 338 338 337 336 332 330 329 330 330 329 328 328 330 333
296 301 306 306 304 301 298 296 296 297 299 301 305 311 314 315 318 319 317 315 313 312 313 314 317 321 323 324 325 327 331 338 344 345 345 346 346 346 347 347 346 345 344 345 346 347 348 350 352 355 356 355 353 352 351 352 354 354 352 351 349 347 344 343 342 341 341 341 340 339 338 336 335 334 334 332 328 325 325 325 326 327 327 329 331
291 296 300 302 301 299 296 293 288 289 292 295 300 305 309 312 314 314 312 310 309 309 311 312 315 318 320 321 322 325 329 334 341 344 343 343 344 345 345 345 345 343 343 344 346 347 348 349 351 353 353 352 351 349 348 349 350 351 350 350 349 347 344 342 339 338 337 336 336 335 336 336 334 334 333 331 327 323 321 321 323 326 327 328 330
285 290 294 296 296 295 294 292 287 285 287 291 295 300 305 309 310 309 308 306 304 305 307 310 313 315 317 318 320 323 326 330 337 341 341 341 342 342 342 342 342 342 343 344 345 346 346 347 349 350 350 350 349 348 347 347 347 347 348 348 347 346 343 340 337 334 333 333 333 334 336 336 336 335 334 332 329 324 320 319 320 323 325 326 329
281 283 286 289 290 290 289 288 286 283 283 286 290 293 298 303 304 304 303 302 300 301 304 307 310 313 314 315 317 321 324 327 333 338 339 338 339 339 339 340 340 341 342 343 344 345 345 345 347 348 348 348 348 348 346 345 345 346 347 347 346 345 343 340 338 336 336 336 337 337 338 338 337 337 337 335 332 328 323 320 319 319 321 324 327
282 281 281 282 287 289 288 285 283 282 281 281 284 287 291 296 298 298 298 297 297 298 300 303 306 310 311 312 315 319 323 324 328 334 336 335 336 336 336 337 338 339 340 342 343 344 344 344 345 347 347 347 347 346 345 344 345 346 346 346 346 346 346 344 343 342 343 343 343 341 340 339 339 339 339 337 335 332 329 325 321 318 317 318 322
283 281 279 279 283 288 289 286 283 282 281 280 280 282 285 289 291 293 294 293 293 294 296 298 303 306 309 309 312 317 321 322 325 329 331 332 333 333 333 335 337 337 338 340 342 342 342 343 344 346 346 345 345 345 344 344 345 345 346 346 347 348 349 349 348 349 350 350 349 347 346 344 341 339 338 337 336 333 330 327 321 316 313 313 316
282 280 279 279 280 284 287 286 283 282 282 280 278 278 279 282 285 287 289 290 290 290 292 294 299 303 306 307 309 314 318 321 323 325 326 329 331 331 332 334 336 336 337 339 340 341 340 342 344 345 344 344 343 344 344 344 345 345 346 347 349 351 352 352 353 354 354 353 352 350 347 343 339 336 334 333 332 330 327 325 322 318 316 313 313
280 280 280 279 278 280 283 284 283 282 281 278 275 274 274 275 278 281 285 286 286 286 288 291 295 300 303 304 306 311 315 318 320 322 323 325 329 330 331 333 334 334 336 338 339 339 339 341 343 344 343 343 343 343 343 343 345 346 348 349 350 352 353 353 353 353 353 351 348 346 342 337 334 332 331 330 330 329 326 324 323 323 322 318 314
280 280 280 279 278 277 279 280 281 281 280 276 272 271 271 272 273 276 279 281 282 283 285 288 292 298 301 302 303 307 312 315 317 318 319 322 326 328 329 331 333 334 335 337 338 337 339 342 343 343 343 343 343 342 342 344 346 347 348 349 350 351 351 351 350 350 348 346 343 339 336 333 331 329 329 328 328 328 327 325 324 325 326 325 320
279 279 279 279 277 275 273 274 277 280 279 275 270 269 269 269 269 271 274 276 278 280 282 285 290 295 298 300 301 305 309 312 314 315 315 320 324 326 327 329 331 333 335 336 336 335 338 341 343 343 343 343 342 342 343 346 347 347 347 348 348 348 348 348 348 347 346 343 340 336 333 331 330 328 327 326 325 324 324 323 322 322 325 327 325
Height
5803 5803 5802 5802 5801 5801 5801 5801 5800 5800 5799 5799 5798 5798 5797 5796 5795 5794 5793 5792 5791 5789 5787 5785 5783 5781 5779 5777 5774 5772 5769 5766 5763 5759 5756 5752 5747 5743 5739 5735 5731 5727 5723 5719 5715 5711 5707 5703 5699 5695 5690 5684 5678 5671 5664 5657 5650 5644 5637 5631 5626 5621 5618 5614 5611 5607 5603 5599 5596 5592 5588 5585 5581 5577 5574 5570 5568 5565 5563 5561 5559 5557 5556 5555 5555
5804 5803 5803 5802 5802 5802 5801 5801 5800 5800 5799 5799 5799 5798 5797 5796 5796 5795 5793 5792 5791 5789 5787 5785 5783 5781 5779 5777 5774 5772 5769 5766 5763 5759 5755 5750 5746 5742 5738 5735 5731 5726 5722 5718 5714 5710 5706 5702 5698 5694 5689 5683 5676 5670 5662 5655 5649 5642 5635 5629 5624 5620 5616 5612 5608 5605 5601 5598 5595 5591 5587 5584 5581 5577 5574 5571 5568 5566 5563 5560 5558 5556 5555 5553 5553
5804 5804 5803 5802 5802 5802 5802 5801 5800 5800 5800 5799 5799 5798 5797 5797 5796 5794 5793 5792 5790 5788 5787 5785 5783 5781 5779 5777 5774 5772 5769 5765 5762 5758 5754 5749 5745 5742 5738 5734 5730 5726 5722 5718 5713 5710 5706 5702 5698 5693 5688 5682 5675 5669 5662 5656 5648 5641 5634 5628 5623 5619 5615 5611 5607 5603 5600 5596 5593 5591 5587 5584 5581 5578 5575 5572 5569 5566 5563 5561 5559 5557 5555 5553 5552
5805 5804 5803 5803 5802 5802 5802 5801 5801 5800 5800 5799 5799 5798 5797 5796 5795 5794 5793 5791 5790 5788 5786 5785 5783 5781 5779 5777 5774 5771 5768 5764 5761 5757 5753 5749 5745 5741 5737 5733 5729 5725 5721 5717 5713 5709 5705 5701 5697 5692 5687 5681 5675 5668 5662 5655 5648 5640 5633 5628 5623 5620 5616 5611 5607 5602 5598 5595 5593 5590 5588 5585 5582 5579 5576 5572 5569 5567 5565 5563 5560 5558 5556 5554 5552
5805 5804 5804 5803 5803 5802 5802 5801 5801 5800 5800 5799 5799 5798 5797 5796 5795 5794 5792 5791 5789 5788 5786 5784 5783 5781 5779 5776 5773 5770 5767 5763 5760 5756 5752 5748 5744 5741 5737 5733 5729 5724 5720 5716 5712 5709 5705 5701 5696 5692 5686 5680 5674 5668 5661 5654 5648 5640 5634 5629 5625 5621 5616 5612 5607 5602 5598 5595 5593 5591 5588 5585 5583 5580 5576 5573 5570 5568 5566 5564 5562 5559 5558 5556 5554
5805 5805 5804 5804 5803 5803 5802 5802 5801 5800 5799 5799 5798 5798 5797 5796 5794 5793 5791 5790 5788 5787 5785 5784 5782 5780 5778 5775 5772 5769 5766 5763 5759 5756 5752 5748 5744 5740 5737 5732 5728 5724 5720 5716 5712 5708 5704 5700 5697 5692 5686 5681 5674 5668 5661 5654 5648 5641 5636 5631 5626 5622 5618 5612 5607 5603 5599 5596 5594 5591 5588 5586 5583 5580 5577 5575 5572 5569 5567 5566 5564 5562 5560 5558 5557
5806 5805 5805 5804 5803 5803 5802 5802 5801 5800 5799 5799 5798 5797 5796 5795 5793 5792 5791 5789 5788 5786 5785 5783 5782 5780 5777 5775 5772 5769 5766 5763 5759 5755 5751 5747 5744 5740 5736 5732 5728 5723 5719 5716 5712 5708 5704 5700 5697 5692 5687 5681 5675 5669 5662 5655 5648 5642 5637 5633 5628 5624 5619 5614 5609 5604 5600 5597 5595 5592 5589 5586 5583 5580 5578 5576 5574 5571 5570 5568 5566 5564 5562 5561 5561
5806 5806 5805 5804 5804 5803 5802 5801 5800 5799 5799 5798 5798 5797 5796 5794 5793 5791 5790 5789 5787 5786 5785 5783 5781 5779 5777 5774 5772 5769 5766 5762 5758 5754 5751 5747 5743 5740 5736 5732 5727 5723 5719 5715 5712 5708 5704 5701 5697 5692 5687 5682 5677 5671 5664 5656 5649 5643 5638 5634 5630 5626 5621 5616 5611 5606 5602 5599 5596 5592 5589 5586 5583 5581 5580 5578 5577 5575 5573 5571 5569 5567 5566 5565 5565
5806 5805 5805 5804 5803 5803 5802 5801 5800 5799 5799 5798 5797 5796 5795 5793 5792 5791 5790 5788 5787 5785 5784 5783 5781 5778 5776 5774 5771 5768 5765 5762 5758 5754 5750 5747 5743 5740 5736 5732 5727 5723 5719 5715 5712 5708 5704 5701 5697 5693 5688 5683 5678 5672 5666 5659 5652 5645 5640 5635 5632 5628 5623 5618 5613 5609 5604 5600 5597 5593 5590 5587 5584 5582 5581 5580 5579 5577 5576 5574 5572 5570 5569 5569 5569
5806 5805 5804 5803 5803 5802 5801 5800 5799 5799 5798 5797 5796 5795 5794 5793 5791 5790 5789 5788 5786 5785 5784 5782 5780 5778 5775 5773 5771 5768 5765 5761 5758 5754 5750 5746 5743 5739 5736 5731 5727 5723 5719 5715 5712 5708 5704 5701 5698 5694 5689 5684 5679 5673 5667 5661 5655 5648 5642 5636 5632 5629 5625 5620 5615 5611 5607 5603 5599 5595 5592 5588 5586 5584 5583 5582 5581 5579 5578 5577 5575 5574 5573 5572 5572
5805 5805 5804 5803 5802 5801 5800 5799 5798 5798 5797 5796 5795 5794 5793 5792 5791 5790 5789 5787 5786 5785 5783 5782 5780 5777 5775 5773 5770 5767 5764 5761 5757 5753 5750 5746 5743 5739 5736 5732 5728 5724 5719 5716 5712 5708 5705 5702 5698 5694 5690 5685 5680 5675 5669 5664 5658 5652 5646 5640 5635 5630 5626 5622 5617 5613 5609 5605 5602 5598 5595 5592 5589 5587 5585 5584 5583 5581 5580 5579 5578 5578 5577 5576 5575
5805 5804 5803 5802 5801 5800 5799 5799 5798 5797 5796 5795 5794 5793 5792 5791 5790 5789 5788 5787 5785 5784 5783 5781 5779 5777 5774 5772 5770 5767 5764 5761 5757 5753 5750 5746 5743 5740 5736 5732 5728 5724 5720 5716 5712 5709 5705 5702 5699 5695 5691 5687 5682 5676 5671 5666 5660 5655 5649 5644 5638 5633 5628 5624 5620 5615 5611 5608 5604 5601 5598 5595 5592 5590 5588 5587 5585 5584 5583 5582 5581 5581 5580 5579 5579
5805 5804 5803 5802 5801 5800 5799 5797 5797 5796 5795 5794 5793 5792 5791 5790 5789 5788 5787 5786 5785 5784 5782 5781 5779 5777 5774 5772 5769 5767 5764 5760 5757 5753 5750 5746 5743 5740 5736 5732 5728 5724 5720 5716 5712 5709 5706 5703 5699 5696 5692 5688 5683 5678 5673 5668 5662 5657 5652 5647 5642 5636 5631 5627 5623 5618 5614 5611 5607 5604 5601 5598 5596 5593 5591 5589 5588 5587 5586 5585 5584 5583 5583 5582 5582
5804 5803 5802 5801 5800 5799 5797 5796 5795 5794 5794 5793 5792 5791 5790 5789 5788 5787 5786 5785 5784 5783 5782 5780 5778 5776 5774 5771 5769 5766 5763 5760 5757 5754 5750 5747 5743 5740 5736 5733 5728 5724 5720 5716 5713 5710 5706 5703 5700 5697 5693 5689 5684 5680 5675 5670 5665 5660 5654 5649 5644 5639 5633 5628 5625 5621 5618 5614 5609 5606 5603 5601 5599 5596 5594 5593 5591 5590 5589 5588 5588 5587 5586 5586 5585
5803 5803 5802 5800 5799 5797 5796 5795 5794 5793 5793 5792 5791 5790 5789 5788 5787 5786 5785 5784 5783 5782 5781 5779 5777 5775 5773 5771 5768 5766 5763 5760 5757 5754 5750 5747 5744 5740 5737 5733 5729 5725 5721 5717 5714 5710 5707 5704 5701 5697 5693 5690 5685 5681 5677 5672 5667 5662 5657 5651 5646 5641 5636 5631 5627 5624 5621 5617 5613 5610 5606 5603 5601 5599 5597 5596 5595 5594 5593 5592 5591 5590 5589 5588 5587
5803 5802 5800 5799 5798 5796 5795 5794 5793 5792 5792 5791 5790 5789 5788 5787 5786 5785 5784 5783 5782 5781 5780 5779 5777 5775 5773 5770 5768 5766 5763 5760 5757 5754 5750 5747 5744 5741 5737 5733 5729 5726 5722 5718 5715 5711 5707 5704 5701 5698 5694 5691 5687 5683 5678 5674 5669 5665 5660 5655 5650 5645 5640 5635 5631 5627 5624 5621 5617 5614 5610 5606 5603 5601 5600 5599 5598 5597 5596 5595 5594 5593 5592 5590 5588
5801 5800 5799 5798 5797 5795 5794 5793 5792 5791 5791 5790 5789 5788 5787 5786 5785 5784 5783 5782 5781 5780 5779 5778 5776 5774 5772 5770 5767 5765 5762 5759 5757 5754 5750 5747 5744 5741 5737 5734 5730 5726 5722 5719 5715 5712 5708 5705 5702 5698 5695 5692 5688 5684 5680 5676 5672 5668 5663 5659 5654 5649 5644 5639 5635 5631 5628 5624 5621 5618 5615 5611 5607 5604 5603 5602 5600 5599 5598 5597 5596 5595 5594 5592 5591
5800 5799 5798 5797 5796 5794 5793 5792 5791 5790 5790 5789 5788 5787 5786 5785 5784 5783 5782 5781 5780 5779 5778 5777 5775 5774 5772 5769 5767 5765 5762 5759 5756 5754 5750 5747 5744 5741 5738 5734 5731 5727 5723 5720 5716 5713 5709 5706 5702 5699 5696 5693 5690 5686 5682 5678 5674 5670 5666 5662 5658 5653 5648 5644 5640 5636 5632 5628 5625 5622 5618 5615 5611 5609 5607 5605 5603 5602 5601 5600 5599 5598 5597 5595 5594
5799 5798 5797 5796 5795 5794 5792 5791 5790 5790 5789 5788 5787 5786 5785 5784 5783 5782 5781 5780 5779 5778 5777 5776 5775 5773 5771 5769 5767 5764 5762 5759 5756 5753 5750 5747 5744 5741 5738 5735 5731 5727 5724 5720 5717 5713 5710 5707 5703 5700 5697 5694 5691 5687 5684 5680 5676 5672 5669 5665 5661 5657 5652 5648 5644 5640 5636 5632 5628 5625 5622 5619 5616 5613 5611 5609 5607 5606 5605 5604 5603 5601 5600 5599 5598
5799 5798 5796 5795 5794 5793 5792 5790 5790 5789 5788 5787 5786 5785 5784 5783 5782 5781 5780 5779 5778 5777 5776 5775 5774 5773 5771 5769 5766 5764 5762 5759 5756 5753 5750 5747 5744 5741 5738 5735 5731 5728 5724 5721 5718 5714 5711 5708 5704 5700 5697 5694 5692 5689 5685 5682 5678 5675 5671 5667 5664 5660 5657 5653 5649 5644 5640 5636 5632 5629 5625 5622 5620 5617 5616 5614 5612 5611 5610 5609 5607 5606 5604 5604 5603
5798 5797 5796 5795 5794 5792 5791 5790 5789 5789 5788 5787 5785 5784 5783 5782 5781 5780 5778 5778 5777 5776 5775 5774 5773 5772 5770 5768 5766 5764 5762 5759 5756 5753 5750 5748 5745 5741 5738 5735 5732 5728 5725 5722 5718 5715 5712 5708 5705 5702 5698 5695 5692 5689 5687 5683 5680 5677 5673 5670 5666 5663 5660 5657 5653 5648 5645 5640 5636 5632 5629 5627 5625 5623 5621 5619 5617 5616 5615 5613 5613 5611 5610 5609 5608
5797 5796 5795 5794 5793 5792 5791 5790 5789 5788 5787 5786 5784 5783 5782 5781 5780 5778 5777 5776 5776 5775 5774 5773 5772 5771 5770 5768 5766 5764 5761 5759 5756 5753 5751 5748 5745 5742 5739 5735 5732 5729 5725 5722 5719 5716 5713 5709 5706 5703 5700 5696 5693 5690 5687 5685 5682 5678 5675 5672 5669 5665 5662 5659 5656 5653 5649 5646 5641 5637 5634 5632 5629 5627 5625 5624 5622 5620 5619 5618 5617 5616 5615 5614 5612
5796 5795 5793 5792 5791 5791 5790 5789 5788 5787 5786 5785 5784 5783 5782 5780 5779 5777 5776 5776 5775 5774 5773 5772 5772 5771 5769 5767 5765 5763 5761 5759 5756 5753 5751 5748 5745 5742 5739 5736 5733 5729 5726 5723 5720 5716 5713 5710 5707 5704 5701 5698 5694 5691 5688 5686 5683 5680 5677 5674 5671 5668 5665 5662 5659 5656 5653 5650 5646 5643 5640 5637 5634 5631 5629 5628 5627 5625 5624 5622 5621 5620 5618 5617 5616
5794 5794 5793 5792 5790 5790 5789 5788 5787 5787 5786 5785 5783 5782 5781 5780 5778 5777 5776 5775 5774 5773 5773 5772 5771 5770 5769 5767 5765 5763 5761 5758 5756 5753 5751 5748 5745 5742 5739 5736 5733 5730 5727 5723 5720 5717 5714 5711 5708 5705 5702 5699 5696 5693 5690 5687 5684 5682 5679 5676 5673 5670 5667 5664 5662 5659 5656 5653 5650 5647 5644 5641 5638 5635 5633 5631 5630 5628 5627 5626 5625 5624 5622 5621 5620
5794 5793 5792 5791 5790 5789 5788 5787 5786 5786 5785 5784 5783 5782 5781 5779 5778 5777 5775 5774 5773 5773 5772 5771 5770 5769 5768 5766 5765 5763 5760 5758 5756 5753 5751 5749 5746 5743 5740 5736 5734 5731 5727 5724 5721 5718 5715 5711 5708 5706 5703 5700 5697 5694 5691 5688 5686 5683 5681 5678 5675 5672 5669 5667 5664 5661 5658 5656 5653 5650 5647 5644 5641 5639 5637 5635 5633 5631 5629 5627 5627 5626 5625 5625 5624
5793 5792 5791 5791 5789 5788 5787 5786 5785 5785 5784 5783 5782 5781 5780 5779 5777 5776 5775 5774 5773 5772 5771 5770 5769 5768 5767 5766 5764 5762 5760 5758 5755 5753 5751 5749 5746 5743 5740 5737 5734 5731 5728 5725 5721 5718 5715 5712 5709 5706 5703 5700 5697 5695 5692 5689 5687 5684 5682 5679 5677 5674 5671 5669 5666 5663 5661 5658 5656 5653 5650 5647 5644 5642 5641 5639 5636 5634 5632 5630 5628 5627 5627 5626 5626
5793 5791 5790 5789 5788 5787 5786 5785 5784 5784 5783 5782 5781 5780 5779 5778 5777 5775 5774 5773 5772 5771 5770 5770 5769 5768 5767 5765 5764 5762 5760 5758 5755 5753 5751 5749 5746 5744 5741 5738 5734 5731 5728 5725 5722 5719 5715 5712 5709 5706 5703 5701 5698 5695 5693 5690 5687 5685 5683 5681 5678 5675 5673 5670 5668 5665 5663 5661 5658 5656 5653 5650 5648 5646 5644 5642 5640 5638 5636 5634 5632 5630 5629 5628 5627
5792 5791 5790 5788 5787 5786 5785 5784 5783 5783 5782 5782 5781 5779 5778 5777 5776 5774 5773 5772 5771 5770 5770 5769 5768 5767 5766 5765 5763 5761 5760 5757 5755 5753 5751 5749 5746 5744 5741 5738 5735 5732 5729 5726 5722 5719 5716 5713 5710 5707 5704 5701 5698 5696 5693 5691 5688 5686 5684 5681 5679 5677 5674 5672 5669 5667 5665 5662 5660 5658 5655 5653 5651 5649 5647 5645 5643 5641 5639 5637 5635 5634 5632 5631 5629
5791 5789 5788 5787 5786 5784 5783 5783 5782 5782 5781 5781 5780 5778 5777 5776 5775 5774 5772 5771 5771 5770 5769 5769 5768 5767 5766 5764 5763 5761 5759 5757 5755 5753 5751 5749 5746 5744 5741 5739 5736 5733 5730 5727 5723 5719 5716 5713 5710 5707 5704 5701 5699 5696 5694 5691 5689 5686 5684 5682 5680 5678 5675 5673 5671 5668 5666 5664 5662 5660 5658 5656 5654 5652 5650 5648 5645 5644 5642 5640 5638 5637 5635 5634 5632
5789 5788 5787 5785 5784 5783 5782 5782 5781 5781 5780 5780 5779 5777 5776 5775 5774 5773 5772 5771 5770 5770 5769 5768 5767 5766 5765 5764 5762 5761 5759 5757 5754 5752 5750 5749 5746 5744 5742 5739 5736 5733 5730 5727 5724 5720 5717 5713 5710 5707 5704 5702 5699 5697 5694 5692 5689 5687 5684 5682 5680 5678 5676 5674 5672 5670 5668 5666 5664 5662 5660 5658 5656 5653 5651 5649 5648 5646 5644 5643 5641 5639 5638 5636 5635
5788 5787 5785 5784 5783 5782 5781 5781 5780 5780 5779 5779 5778 5776 5775 5774 5773 5772 5771 5770 5770 5769 5769 5768 5767 5766 5765 5763 5762 5760 5758 5756 5754 5752 5750 5748 5746 5744 5742 5739 5736 5733 5731 5728 5724 5721 5718 5714 5711 5708 5705 5702 5700 5697 5695 5692 5690 5687 5684 5682 5680 5678 5677 5675 5673 5671 5669 5667 5665 5663 5661 5659 5657 5655 5653 5651 5650 5648 5646 5645 5643 5641 5640 5638 5637
5787 5785 5784 5783 5781 5781 5780 5780 5779 5778 5778 5777 5777 5775 5774 5773 5772 5771 5771 5770 5770 5769 5768 5767 5766 5765 5764 5763 5761 5760 5758 5756 5754 5752 5750 5748 5746 5744 5741 5739 5736 5734 5731 5728 5725 5722 5718 5715 5711 5708 5705 5703 5700 5698 5695 5693 5690 5687 5685 5682 5681 5679 5677 5675 5673 5671 5669 5668 5666 5664 5662 5660 5658 5656 5655 5653 5651 5649 5648 5646 5644 5643 5641 5640 5638
5786 5784 5783 5781 5780 5780 5779 5778 5778 5777 5776 5776 5775 5774 5773 5772 5772 5771 5770 5770 5769 5768 5767 5766 5765 5764 5764 5762 5761 5759 5757 5755 5753 5751 5749 5748 5746 5744 5741 5739 5736 5734 5731 5728 5725 5722 5719 5715 5712 5709 5706 5703 5701 5698 5696 5693 5691 5688 5685 5683 5681 5679 5677 5676 5674 5672 5670 5668 5666 5665 5663 5661 5659 5657 5656 5654 5652 5650 5649 5647 5645 5644 5642 5641 5639
5784 5783 5781 5780 5779 5778 5778 5777 5776 5776 5775 5774 5774 5773 5772 5771 5771 5770 5769 5769 5768 5768 5767 5766 5765 5764 5763 5762 5761 5759 5757 5755 5753 5751 5749 5747 5745 5743 5741 5739 5736 5734 5731 5729 5726 5723 5719 5716 5712 5709 5706 5704 5701 5699 5697 5694 5691 5689 5686 5684 5682 5680 5678 5676 5674 5672 5670 5669 5667 5665 5663 5661 5660 5658 5656 5654 5652 5651 5649 5648 5646 5644 5643 5641 5640
5784 5782 5780 5779 5778 5777 5776 5776 5775 5775 5774 5773 5773 5772 5771 5771 5770 5769 5769 5768 5768 5767 5766 5765 5764 5763 5762 5761 5760 5758 5756 5754 5752 5750 5748 5747 5745 5743 5741 5738 5736 5734 5731 5729 5726 5723 5720 5716 5713 5710 5707 5704 5702 5700 5697 5695 5692 5690 5687 5685 5682 5680 5678 5676 5674 5673 5671 5669 5667 5665 5663 5661 5660 5658 5656 5654 5652 5651 5649 5648 5646 5645 5643 5641 5640
5783 5781 5779 5778 5777 5777 5776 5775 5774 5774 5773 5772 5772 5771 5771 5770 5769 5768 5768 5768 5767 5766 5765 5764 5763 5762 5762 5761 5759 5758 5756 5754 5752 5750 5748 5746 5744 5742 5740 5738 5736 5734 5731 5728 5726 5723 5719 5716 5713 5710 5707 5705 5702 5700 5697 5695 5693 5690 5688 5685 5683 5681 5679 5676 5675 5673 5671 5669 5667 5665 5663 5661 5659 5658 5656 5654 5652 5651 5649 5648 5646 5644 5643 5641 5639
5782 5780 5779 5778 5777 5776 5775 5774 5773 5772 5772 5772 5771 5770 5770 5769 5768 5768 5767 5767 5766 5766 5765 5764 5763 5762 5761 5760 5759 5757 5755 5753 5751 5749 5747 5745 5743 5741 5739 5737 5735 5733 5731 5728 5725 5722 5719 5716 5713 5710 5707 5705 5702 5700 5697 5695 5693 5691 5688 5686 5684 5681 5679 5677 5675 5672 5670 5669 5667 5665 5663 5661 5659 5657 5655 5654 5652 5650 5649 5647 5646 5644 5642 5641 5639
5781 5779 5778 5777 5776 5775 5774 5773 5772 5772 5771 5771 5770 5769 5769 5768 5767 5767 5766 5766 5765 5765 5764 5763 5762 5761 5760 5759 5758 5757 5755 5753 5751 5749 5747 5745 5742 5740 5738 5736 5734 5732 5730 5727 5725 5722 5719 5716 5713 5710 5707 5704 5702 5700 5698 5695 5693 5691 5688 5686 5684 5681 5679 5677 5674 5672 5670 5668 5666 5664 5662 5660 5659 5657 5655 5653 5651 5650 5648 5647 5645 5643 5642 5640 5639
5779 5778 5777 5775 5774 5773 5772 5772 5771 5771 5770 5770 5769 5768 5768 5767 5766 5766 5765 5765 5764 5764 5763 5762 5761 5760 5759 5758 5757 5756 5754 5752 5750 5748 5746 5744 5741 5739 5737 5735 5733 5731 5729 5726 5724 5721 5718 5715 5712 5709 5706 5704 5702 5699 5697 5695 5693 5690 5688 5686 5683 5681 5679 5676 5674 5672 5669 5667 5665 5663 5661 5660 5658 5656 5654 5652 5650 5649 5647 5646 5644 5642 5641 5639 5638
5778 5776 5775 5774 5773 5772 5771 5770 5770 5769 5769 5768 5768 5767 5767 5766 5765 5765 5764 5764 5763 5763 5762 5761 5760 5759 5758 5757 5757 5755 5754 5752 5750 5748 5746 5744 5741 5739 5736 5734 5732 5730 5728 5726 5723 5720 5718 5715 5712 5709 5706 5704 5701 5699 5697 5695 5692 5690 5688 5685 5683 5680 5678 5675 5673 5671 5668 5666 5664 5662 5660 5658 5657 5655 5653 5651 5649 5648 5646 5644 5643 5641 5639 5638 5636
5776 5775 5774 5772 5771 5770 5769 5769 5768 5768 5768 5767 5766 5766 5765 5765 5764 5764 5763 5763 5762 5762 5761 5760 5759 5758 5757 5757 5756 5755 5753 5751 5749 5748 5746 5743 5741 5738 5736 5734 5732 5730 5728 5725 5723 5720 5718 5715 5712 5709 5706 5704 5702 5699 5697 5695 5692 5690 5687 5685 5682 5679 5677 5674 5672 5669 5667 5665 5663 5661 5659 5657 5655 5653 5651 5650 5648 5646 5645 5643 5641 5640 5638 5636 5635
5774 5773 5772 5771 5770 5769 5768 5767 5767 5767 5766 5766 5765 5765 5764 5764 5763 5762 5762 5762 5761 5760 5760 5759 5758 5757 5756 5756 5755 5754 5753 5751 5749 5747 5745 5743 5740 5738 5736 5733 5731 5729 5727 5725 5723 5720 5717 5715 5712 5709 5706 5704 5702 5699 5697 5695 5692 5690 5687 5684 5682 5679 5676 5673 5670 5668 5666 5663 5661 5659 5657 5655 5653 5651 5649 5648 5646 5645 5643 5641 5640 5638 5636 5635 5633
5772 5771 5770 5770 5768 5767 5766 5766 5765 5765 5765 5764 5764 5763 5763 5762 5762 5761 5761 5760 5760 5759 5758 5758 5757 5756 5755 5754 5754 5753 5752 5750 5748 5747 5745 5742 5740 5738 5735 5733 5731 5729 5727 5725 5722 5719 5717 5714 5711 5709 5706 5704 5702 5699 5697 5695 5692 5689 5687 5684 5681 5678 5675 5672 5669 5667 5664 5662 5660 5657 5655 5653 5652 5650 5648 5646 5644 5643 5641 5640 5638 5636 5635 5633 5632
5769 5769 5768 5768 5767 5766 5765 5764 5764 5763 5763 5762 5762 5761 5761 5761 5760 5760 5760 5759 5758 5758 5757 5756 5755 5755 5754 5753 5753 5752 5751 5749 5748 5746 5744 5742 5740 5737 5735 5733 5731 5729 5726 5724 5721 5719 5716 5714 5711 5708 5706 5703 5701 5699 5696 5694 5691 5689 5686 5682 5679 5676 5673 5670 5668 5665 5662 5660 5658 5655 5653 5652 5650 5648 5646 5645 5643 5641 5640 5638 5636 5635 5633 5631 5630
5766 5766 5766 5766 5765 5764 5763 5763 5762 5762 5761 5760 5760 5759 5759 5759 5759 5758 5758 5757 5757 5756 5755 5755 5754 5753 5753 5752 5751 5750 5749 5748 5747 5745 5744 5741 5739 5737 5735 5732 5730 5728 5726 5723 5721 5718 5715 5713 5710 5708 5705 5703 5700 5698 5696 5693 5690 5687 5684 5681 5678 5674 5671 5668 5666 5663 5660 5658 5655 5653 5651 5650 5648 5647 5645 5643 5641 5640 5638 5636 5635 5633 5632 5630 5628
5763 5763 5763 5763 5763 5762 5761 5761 5760 5760 5759 5758 5758 5757 5757 5757 5757 5757 5756 5756 5755 5754 5754 5753 5752 5752 5751 5750 5749 5749 5748 5746 5745 5744 5743 5741 5739 5736 5734 5732 5730 5727 5725 5722 5720 5717 5715 5712 5709 5707 5704 5702 5700 5697 5695 5692 5689 5686 5683 5679 5676 5672 5669 5666 5664 5661 5659 5657 5654 5653 5651 5649 5647 5645 5643 5642 5640 5638 5636 5635 5633 5631 5630 5628 5627
5760 5759 5760 5760 5760 5759 5759 5758 5757 5757 5757 5756 5755 5755 5755 5755 5755 5754 5754 5754 5753 5753 5752 5751 5750 5750 5749 5749 5748 5747 5746 5745 5744 5743 5742 5740 5738 5736 5733 5731 5729 5726 5724 5722 5719 5716 5714 5711 5708 5706 5703 5701 5698 5696 5693 5690 5687 5684 5681 5677 5674 5671 5668 5665 5663 5660 5658 5656 5654 5652 5649 5647 5645 5644 5642 5640 5638 5636 5634 5633 5631 5630 5628 5627 5625
5756 5756 5756 5757 5757 5756 5756 5755 5755 5754 5754 5753 5753 5752 5752 5752 5752 5752 5752 5752 5751 5750 5750 5749 5748 5748 5747 5747 5746 5745 5744 5743 5742 5741 5740 5739 5737 5735 5732 5730 5728 5725 5723 5720 5718 5715 5713 5710 5708 5705 5702 5700 5697 5695 5692 5689 5686 5683 5679 5676 5672 5669 5667 5664 5662 5659 5657 5654 5652 5650 5648 5646 5644 5642 5640 5638 5637 5635 5633 5631 5630 5628 5626 5625 5623
5753 5753 5753 5753 5753 5753 5753 5752 5752 5751 5751 5751 5750 5750 5749 5749 5750 5750 5749 5749 5749 5748 5747 5747 5746 5746 5745 5745 5744 5743 5743 5742 5740 5739 5738 5737 5735 5733 5731 5729 5727 5724 5722 5719 5717 5714 5712 5709 5706 5704 5701 5699 5696 5693 5690 5688 5684 5681 5677 5674 5671 5668 5665 5663 5660 5658 5655 5653 5651 5649 5647 5645 5643 5641 5639 5637 5635 5633 5631 5629 5628 5626 5624 5623 5621
5751 5750 5750 5749 5750 5750 5749 5749 5748 5748 5748 5748 5747 5747 5747 5747 5747 5747 5747 5747 5746 5746 5745 5744 5744 5744 5743 5743 5742 5741 5741 5740 5739 5738 5736 5735 5733 5732 5730 5728 5726 5723 5720 5718 5716 5713 5710 5708 5705 5703 5700 5697 5694 5692 5689 5686 5682 5678 5675 5672 5669 5667 5664 5662 5659 5657 5654 5652 5650 5648 5646 5644 5641 5639 5637 5635 5633 5631 5629 5627 5626 5624 5623 5621 5619
5748 5747 5746 5745 5745 5745 5745 5745 5745 5744 5744 5744 5744 5744 5744 5744 5744 5744 5744 5744 5743 5743 5742 5742 5741 5741 5741 5740 5740 5739 5739 5738 5737 5736 5735 5733 5732 5730 5728 5726 5724 5722 5719 5717 5714 5712 5709 5707 5704 5701 5699 5696 5693 5690 5687 5683 5680 5676 5673 5671 5668 5666 5663 5661 5658 5656 5653 5651 5649 5646 5644 5641 5639 5637 5635 5632 5630 5629 5627 5625 5624 5622 5621 5619 5618